Location: *
(50.9167°S, 179.4000°W)
Time: 08:46:11
(UTC+00:00)

Cosmos 1544 Rocket - Pass Details

Date: 03 March 2024
Orbit: 600 x 628 km, 82.5° (Epoch: 20 April)

Event Time Altitude Azimuth Distance (km) Brightness Sun altitude
Rises 15:36:03 0° 199° (SSW) 2,906 7.2 -17.5°
Reaches altitude 10° 15:38:29 10° 209° (SSW) 1,996 6.2 -17.2°
Maximum altitude 15:42:19 30° 269° (W) 1,122 4.4 -16.7°
Enters shadow 15:42:45 29° 280° (W) 1,136 4.4 -16.7°
